DW8004 Weather Reports


time (UTC)temp
C
wind
direction
speed
KPH
gust
KPH
rain 1hr
cm
rain 24hr
cm
rain mn
cm
humidity
%
barometer
mb
20260903184550 20 231 0.0 0.0 0.00 0.00 0.00 91 1012.0
20260903183038 20 168 0.0 0.0 0.00 0.00 0.00 91 1012.1
20260903181502 20 224 0.0 0.0 0.00 0.00 0.00 90 1012.1
20260903180023 20 206 0.0 0.0 0.00 0.00 0.00 90 1012.0
20260903174528 20 206 0.0 0.0 0.00 0.00 0.00 91 1012.2
20260903173035 20 206 0.0 0.0 0.00 0.00 0.00 91 1012.1
20260903171530 20 240 0.0 0.0 0.00 0.00 0.00 91 1012.4
20260903170037 20 201 0.0 0.0 0.00 0.00 0.00 90 1012.5
20260903164537 20 272 0.0 0.0 0.00 0.00 0.00 90 1012.6
20260903163044 21 254 0.0 0.0 0.00 0.00 0.00 89 1012.6
20260903161515 21 206 0.0 0.0 0.00 0.00 0.00 88 1012.5
20260903160008 20 242 0.0 0.0 0.00 0.00 0.00 91 1012.6
20260903154509 20 208 0.0 0.0 0.00 0.00 0.00 91 1012.8
20260903153132 20 240 0.0 0.0 0.00 0.00 0.00 91 1012.9
20260903151528 20 188 0.0 0.0 0.00 0.00 0.00 93 1012.7
20260903150008 18 123 0.0 0.0 0.00 0.00 0.00 94 1012.8
20260903144538 18 165 0.0 0.0 0.00 0.00 0.00 95 1013.1
20260903143015 17 165 0.0 0.0 0.00 0.00 0.00 96 1013.2
20260903141524 17 165 0.0 0.0 0.00 0.00 0.00 97 1013.3
20260903140001 17 165 0.0 0.0 0.00 0.00 0.00 97 1013.5
20260903134640 16 167 0.0 0.0 0.00 0.00 0.00 98 1013.3
20260903133013 16 171 0.0 0.0 0.00 0.00 0.00 98 1013.3
20260903131511 16 171 0.0 0.0 0.00 0.00 0.00 98 1013.5
20260903130009 15 82 0.0 0.0 0.00 0.00 0.00 98 1013.6
20260903124610 15 107 0.0 0.0 0.00 0.00 0.00 98 1013.6
20260903123013 15 109 0.0 0.0 0.00 0.00 0.00 98 1013.7
20260903121514 15 109 0.0 0.0 0.00 0.00 0.00 98 1014.0
20260903120038 15 109 0.0 0.0 0.00 0.00 0.00 98 1013.9
20260903114534 15 220 0.0 0.0 0.00 0.00 0.00 98 1014.0
20260903113039 15 220 0.0 0.0 0.00 0.00 0.00 98 1014.0
20260903111552 15 220 0.0 0.0 0.00 0.00 0.00 98 1014.1
20260903110045 15 227 0.0 0.0 0.00 0.00 0.00 98 1014.1
20260903104553 15 241 0.0 0.0 0.00 0.00 0.00 98 1014.0
20260903103049 15 257 0.0 0.0 0.00 0.00 0.00 98 1014.1
20260903101520 15 63 0.0 0.0 0.00 0.00 0.00 97 1014.0
20260903100131 15 85 0.0 0.0 0.00 0.00 0.00 97 1013.9
20260903094602 15 85 0.0 0.0 0.00 0.00 0.00 97 1013.7
20260903093032 15 85 0.0 0.0 0.00 0.00 0.00 97 1013.8
20260903091513 15 85 0.0 0.0 0.00 0.00 0.00 97 1014.0
20260903090029 15 85 0.0 0.0 0.00 0.00 0.00 97 1013.8
20260903084542 15 85 0.0 0.0 0.00 0.00 0.00 97 1014.0
20260903083053 15 100 0.0 0.0 0.00 0.00 0.00 97 1014.2
20260903081549 15 100 0.0 0.0 0.00 0.00 0.00 96 1014.2
20260903080052 15 42 0.0 0.0 0.00 0.00 0.00 96 1014.2
20260903074612 15 41 0.0 0.0 0.00 0.00 0.00 96 1014.4
20260903073049 14 41 0.0 0.0 0.00 0.00 0.00 96 1014.3
20260903071547 14 145 0.0 0.0 0.00 0.00 0.00 96 1014.3
20260903070052 14 60 0.0 0.0 0.00 0.00 0.00 96 1014.5
20260903064559 14 84 0.0 0.0 0.00 0.00 0.00 95 1014.7
20260903063103 14 85 0.0 0.0 0.00 0.00 0.00 95 1014.8
20260903061544 14 83 0.0 0.0 0.00 0.00 0.00 95 1015.0
20260903054553 15 123 0.0 0.0 0.00 0.00 0.00 94 1015.5
20260903053110 15 175 0.0 0.0 0.00 0.00 0.00 93 1015.8
20260903051557 15 144 0.0 0.0 0.00 0.00 0.00 92 1016.1
20260903050044 15 43 0.0 0.0 0.00 0.00 0.00 92 1016.1
20260903044551 15 29 0.0 0.0 0.00 0.00 0.00 91 1016.0
20260903043100 15 57 0.0 0.0 0.00 0.00 0.00 90 1016.1
20260903041605 15 75 0.0 0.0 0.00 0.00 0.00 89 1016.4
20260903040041 15 108 0.0 0.0 0.00 0.00 0.00 89 1016.9
20260903034518 15 108 0.0 0.0 0.00 0.00 0.00 89 1016.7
20260903033049 15 105 0.0 0.0 0.00 0.00 0.00 89 1016.7
20260903031546 15 63 0.0 0.0 0.00 0.00 0.00 90 1016.8
20260903030048 15 87 0.0 0.0 0.00 0.00 0.00 90 1016.9
20260903024546 16 74 0.0 0.0 0.00 0.00 0.00 91 1017.1
20260903023134 16 64 0.0 0.0 0.00 0.00 0.00 92 1017.2
20260903021601 16 84 0.0 0.0 0.00 0.00 0.00 92 1017.6
20260903020051 16 92 0.0 0.0 0.00 0.00 0.00 91 1017.6
20260903014613 16 89 0.0 0.0 0.00 0.00 0.00 91 1018.2
20260903013059 16 59 0.0 0.0 0.00 0.00 0.00 91 1018.3
20260903011525 16 65 0.0 0.0 0.00 0.00 0.00 91 1018.0
20260903010112 16 125 0.0 0.0 0.00 0.00 0.00 92 1018.0
20260903004608 16 30 0.0 0.0 0.00 0.00 0.00 92 1017.9
20260903003109 16 24 0.0 0.0 0.00 0.00 0.00 92 1017.7
20260903001547 16 85 0.0 0.0 0.00 0.00 0.00 91 1017.2
20260903000047 16 73 0.0 0.0 0.00 0.00 0.00 92 1017.5
20260902234511 16 73 0.0 0.0 0.00 0.00 0.00 91 1017.8
20260902233014 16 71 0.0 0.0 0.00 0.00 0.00 90 1017.9
20260902231558 16 71 0.0 0.0 0.00 0.00 0.00 90 1018.0
20260902230058 17 92 0.0 0.0 0.00 0.00 0.00 90 1018.6
20260902224539 17 121 0.0 0.0 0.00 0.00 0.00 89 1018.8
20260902223045 17 13 0.0 0.0 0.00 0.00 0.00 89 1019.1
20260902221537 17 86 0.0 0.0 0.00 0.00 0.00 89 1019.3
20260902220003 17 89 0.0 0.0 0.00 0.00 0.00 89 1019.2
20260902214518 17 89 0.0 0.0 0.00 0.00 0.00 89 1019.4
20260902213104 17 63 0.0 0.0 0.00 0.00 0.00 90 1019.2
20260902211547 17 68 0.0 0.0 0.00 0.00 0.00 90 1019.3
20260902210032 17 107 0.0 0.0 0.00 0.00 0.00 89 1019.1
20260902204553 17 96 0.0 0.0 0.00 0.00 0.00 89 1019.2
20260902203055 17 95 0.0 0.0 0.00 0.00 0.00 89 1019.4
20260902201547 17 125 0.0 0.0 0.00 0.00 0.00 89 1019.1
20260902200044 17 107 0.0 0.0 0.00 0.00 0.00 88 1019.4
20260902194536 17 104 0.0 0.0 0.00 0.00 0.00 88 1019.8
20260902193038 17 90 0.0 0.0 0.00 0.00 0.00 88 1019.8
20260902191539 17 114 0.0 0.0 0.00 0.00 0.00 88 1019.9
20260902190052 17 87 0.0 0.0 0.00 0.00 0.00 89 1020.0